Date String (YYYY-MM-DD hh:mm:ss) UTC,Instrument flags,absolute air pressure of the measurement (hPa),sample flow rate (lpm),inlet stack bypass flow (lpm),air temperature of the measurement (°C),ambient temperature measured by the external sensor (°C),aerosol sample conditioner tube jacket temperature (°C),OPC LED temperature (°C),internal box temperature (°C),relative humidity of the measurement (%),span deviation,mass concentration of particles derived from Lorenz-Mie calculation of OPC scattering (μg/m³),mass concentration of particles derived from Lorenz-Mie calculation of OPC scattering (μg/m³),mass concentration of particles derived from Lorenz-Mie calculation of OPC scattering (μg/m³)
DateTimeUTC,F1_M11,P_M11,Q1_M11,Q2_M11,T1_M11,T2_M11,T3_M11,T4_M11,T5_M11,U1_M11,ZSPAN_M11,X0_M11,X2_M11,X1_M11
2023-08-11 19:00:00,SystemResetWarning,0830.9,5.00,000.00,028.5,025.5,000.0,036.8,029.9,22.6,0000.0,0009.63,0004.28,0003.69
2023-08-11 19:01:00,SystemResetWarning,0830.9,5.00,000.00,028.5,025.9,000.0,036.8,030.0,22.2,0000.0,0010.03,0004.28,0003.69
2023-08-11 19:02:00,SystemResetWarning,0830.9,5.00,000.00,028.5,026.3,000.0,036.8,030.2,21.8,0000.0,0011.06,0004.27,0003.67
2023-08-11 19:03:00,SystemResetWarning,0830.9,5.00,000.00,028.6,026.7,000.0,036.9,030.3,21.6,0000.0,0011.00,0004.24,0003.66
2023-08-11 19:04:00,SystemResetWarning,0830.9,5.00,000.00,028.6,027.1,000.0,036.9,030.4,21.4,0000.0,0010.94,0004.23,0003.66
2023-08-11 19:05:00,SystemResetWarning,0830.9,4.99,000.00,028.7,026.9,000.0,036.9,030.4,21.6,0000.0,0010.86,0004.22,0003.66
2023-08-11 19:06:00,SystemResetWarning,0830.9,4.99,000.00,028.6,025.4,000.0,036.8,030.0,21.7,0000.0,0010.76,0004.20,0003.64
2023-08-11 19:07:00,SystemResetWarning,0830.8,5.00,000.00,028.5,024.7,000.0,036.7,029.9,21.6,0000.0,0010.82,0004.21,0003.64
2023-08-11 19:08:00,SystemResetWarning,0830.8,5.01,000.00,028.5,025.0,000.0,036.7,029.8,21.8,0000.0,0010.79,0004.19,0003.64
2023-08-11 19:09:00,SystemResetWarning,0830.7,5.00,000.00,028.4,025.4,000.0,036.7,029.9,22.0,0000.0,0010.30,0004.20,0003.64
2023-08-11 19:10:00,SystemResetWarning,0830.8,5.00,000.00,028.5,025.8,000.0,036.8,030.0,21.9,0000.0,0009.28,0004.19,0003.64
2023-08-11 19:11:00,SystemResetWarning,0830.9,5.00,000.00,028.5,026.3,000.0,036.8,030.1,21.8,0000.0,0008.96,0004.20,0003.64
2023-08-11 19:12:00,SystemResetWarning,0830.9,5.00,000.00,028.5,026.6,000.0,036.8,030.3,22.2,0000.0,0009.16,0004.22,0003.65
2023-08-11 19:13:00,SystemResetWarning,0830.8,4.99,000.00,028.6,027.0,000.0,036.9,030.4,22.2,0000.0,0008.64,0004.19,0003.64
2023-08-11 19:14:00,SystemResetWarning,0830.9,4.99,000.00,028.7,027.3,000.0,036.9,030.5,22.5,0000.0,0008.91,0004.19,0003.64
2023-08-11 19:15:00,SystemResetWarning,0830.9,4.99,000.00,028.7,026.5,000.0,036.8,030.3,22.4,0000.0,0009.11,0004.21,0003.65
2023-08-11 19:16:00,SystemResetWarning,0830.9,5.01,000.00,028.6,024.9,000.0,036.7,030.0,21.8,0000.0,0009.29,0004.22,0003.65
2023-08-11 19:17:00,SystemResetWarning,0830.9,5.02,000.00,028.6,024.8,000.0,036.7,029.9,21.8,0000.0,0009.54,0004.25,0003.66
2023-08-11 19:18:00,SystemResetWarning,0830.9,5.00,000.00,028.5,025.2,000.0,036.7,029.9,21.9,0000.0,0009.65,0004.25,0003.67
2023-08-11 19:19:00,SystemResetWarning,0830.9,5.00,000.00,028.5,025.6,000.0,036.8,030.0,21.9,0000.0,0009.87,0004.25,0003.67
2023-08-11 19:20:00,SystemResetWarning,0830.9,5.01,000.00,028.5,026.0,000.0,036.8,030.1,21.7,0000.0,0009.83,0004.24,0003.66
2023-08-11 19:21:00,SystemResetWarning,0830.9,5.00,000.00,028.5,026.4,000.0,036.8,030.2,22.0,0000.0,0009.88,0004.21,0003.65
2023-08-11 19:22:00,SystemResetWarning,0830.9,4.99,000.00,028.6,026.8,000.0,036.9,030.3,22.7,0000.0,0009.85,0004.19,0003.65
2023-08-11 19:23:00,SystemResetWarning,0830.9,4.99,000.00,028.6,027.1,000.0,036.9,030.4,22.3,0000.0,0009.34,0004.20,0003.65
2023-08-11 19:24:00,SystemResetWarning,0830.9,5.00,000.00,028.7,026.5,000.0,036.8,030.3,22.0,0000.0,0009.47,0004.23,0003.65
2023-08-11 19:25:00,SystemResetWarning,0830.9,5.00,000.00,028.6,024.9,000.0,036.7,029.9,22.0,0000.0,0008.89,0004.24,0003.67
2023-08-11 19:26:00,SystemResetWarning,0830.8,5.02,000.00,028.5,024.7,000.0,036.6,029.8,22.4,0000.0,0008.73,0004.25,0003.68
2023-08-11 19:27:00,SystemResetWarning,0830.8,5.00,000.00,028.5,025.0,000.0,036.7,029.8,22.0,0000.0,0008.77,0004.31,0003.70
2023-08-11 19:28:00,SystemResetWarning,0830.8,5.00,000.00,028.4,025.4,000.0,036.7,029.9,22.5,0000.0,0008.72,0004.36,0003.72
2023-08-11 19:29:00,SystemResetWarning,0830.8,5.00,000.00,028.4,025.9,000.0,036.7,030.0,22.5,0000.0,0008.56,0004.36,0003.74
2023-08-11 19:30:00,SystemResetWarning,0830.8,5.00,000.00,028.5,026.3,000.0,036.8,030.1,22.9,0000.0,0009.06,0004.37,0003.76
2023-08-11 19:31:00,SystemResetWarning,0830.9,5.00,000.00,028.5,026.7,000.0,036.8,030.3,22.0,0000.0,0009.37,0004.40,0003.77
2023-08-11 19:32:00,SystemResetWarning,0830.9,4.99,000.00,028.6,027.0,000.0,036.9,030.4,22.4,0000.0,0009.29,0004.43,0003.80
2023-08-11 19:33:00,SystemResetWarning,0830.9,4.99,000.00,028.7,027.2,000.0,036.9,030.4,22.6,0000.0,0009.27,0004.46,0003.81
2023-08-11 19:34:00,SystemResetWarning,0830.9,5.00,000.00,028.6,025.9,000.0,036.8,030.1,22.5,0000.0,0009.16,0004.43,0003.82
2023-08-11 19:35:00,SystemResetWarning,0830.8,5.00,000.00,028.5,024.7,000.0,036.7,029.9,21.5,0000.0,0009.77,0004.44,0003.84
2023-08-11 19:36:00,SystemResetWarning,0830.9,5.02,000.00,028.5,024.9,000.0,036.7,029.9,21.5,0000.0,0009.48,0004.43,0003.85
2023-08-11 19:37:00,SystemResetWarning,0830.8,5.00,000.00,028.4,025.2,000.0,036.7,029.8,22.2,0000.0,0009.63,0004.41,0003.84
2023-08-11 19:38:00,SystemResetWarning,0830.9,5.00,000.00,028.4,025.7,000.0,036.7,030.0,21.9,0000.0,0010.61,0004.41,0003.82
2023-08-11 19:39:00,SystemResetWarning,0830.8,5.00,000.00,028.5,026.1,000.0,036.8,030.1,21.8,0000.0,0010.83,0004.35,0003.82
2023-08-11 19:40:00,SystemResetWarning,0830.8,5.00,000.00,028.5,026.5,000.0,036.8,030.2,21.9,0000.0,0011.21,0004.34,0003.81
2023-08-11 19:41:00,SystemResetWarning,0830.8,5.00,000.00,028.6,026.9,000.0,036.8,030.3,22.3,0000.0,0011.10,0004.37,0003.81
2023-08-11 19:42:00,SystemResetWarning,0830.8,4.99,000.00,028.6,027.2,000.0,036.9,030.4,22.1,0000.0,0010.50,0004.39,0003.80
2023-08-11 19:43:00,SystemResetWarning,0830.9,5.00,000.00,028.7,027.4,000.0,036.9,030.5,21.9,0000.0,0010.65,0004.41,0003.79
2023-08-11 19:44:00,SystemResetWarning,0830.8,4.99,000.00,028.7,026.2,000.0,036.8,030.3,21.6,0000.0,0010.68,0004.39,0003.79
2023-08-11 19:45:00,SystemResetWarning,0830.8,5.00,000.00,028.6,024.8,000.0,036.7,029.9,21.8,0000.0,0010.83,0004.39,0003.79
2023-08-11 19:46:00,SystemResetWarning,0830.8,5.02,000.00,028.5,025.0,000.0,036.7,029.9,21.9,0000.0,0010.46,0004.38,0003.79
2023-08-11 19:47:00,SystemResetWarning,0830.8,5.00,000.00,028.5,025.3,000.0,036.7,029.9,22.1,0000.0,0010.14,0004.38,0003.79
2023-08-11 19:48:00,SystemResetWarning,0830.8,4.99,000.00,028.5,025.8,000.0,036.8,030.0,22.2,0000.0,0010.58,0004.39,0003.79
2023-08-11 19:49:00,SystemResetWarning,0830.8,5.00,000.00,028.5,026.2,000.0,036.8,030.1,22.0,0000.0,0010.23,0004.37,0003.80
2023-08-11 19:50:00,SystemResetWarning,0830.9,5.00,000.00,028.6,026.6,000.0,036.8,030.3,21.9,0000.0,0009.43,0004.37,0003.82
2023-08-11 19:51:00,SystemResetWarning,0830.9,4.99,000.00,028.6,026.9,000.0,036.9,030.4,21.7,0000.0,0009.19,0004.37,0003.83
2023-08-11 19:52:00,SystemResetWarning,0830.9,4.99,000.00,028.7,027.2,000.0,036.9,030.5,22.0,0000.0,0009.10,0004.35,0003.84
2023-08-11 19:53:00,SystemResetWarning,0830.9,5.00,000.00,028.7,026.2,000.0,036.8,030.2,21.9,0000.0,0009.22,0004.31,0003.85
2023-08-11 19:54:00,SystemResetWarning,0830.9,5.00,000.00,028.6,024.8,000.0,036.7,029.9,23.0,0000.0,0009.30,0004.33,0003.86
2023-08-11 19:55:00,SystemResetWarning,0830.8,5.02,000.00,028.5,024.8,000.0,036.7,029.9,22.7,0000.0,0009.59,0004.36,0003.87
2023-08-11 19:56:00,SystemResetWarning,0830.9,4.99,000.00,028.5,025.2,000.0,036.7,029.8,22.5,0000.0,0009.57,0004.37,0003.87
2023-08-11 19:57:00,SystemResetWarning,0830.8,5.00,000.00,028.4,025.6,000.0,036.7,029.9,22.2,0000.0,0009.48,0004.39,0003.87
2023-08-11 19:58:00,SystemResetWarning,0830.8,5.00,000.00,028.5,026.1,000.0,036.8,030.1,22.1,0000.0,0010.09,0004.41,0003.87
2023-08-11 19:59:00,SystemResetWarning,0830.8,5.00,000.00,028.5,026.5,000.0,036.8,030.2,22.5,0000.0,0009.97,0004.42,0003.88
